Location: Bakhuizen
(52.8696°N, 5.4575°E)
Time: 08:42:38
(UTC+00:00)

Cosmos 1833 - Pass Details

Date: 04 October 2021
Orbit: 834 x 864 km, 70.9° (Epoch: 23 October)

Event Time Altitude Azimuth Distance (km) Brightness Sun altitude
Rises 17:29:06 0° 327° (NNW) 3,399 7.8 -4.0°
Reaches altitude 10° 17:31:34 10° 324° (NW) 2,459 7.1 -4.4°
Maximum altitude 17:37:08 64° 244° (WSW) 923 4.8 -5.3°
Drops below altitude 10° 17:42:39 10° 164° (SSE) 2,443 6.5 -6.1°
Sets 17:45:06 0° 162° (SSE) 3,375 7.1 -6.5°
